STARLINK-34025, 63824

Orbit data source: Space-Track

STARLINK-34025, 63824 is a payload satellite owned by SpaceX/Seattle (US) in LEO that was launched on Sun, 04 May 2025 UTC via an FALCON 9 launch vehicle from the Air Force Eastern Test Range (AFETR). Payload-class satellites include a variety of spacecraft equipped with specific instruments for various scientific and technological missions. These include communications satellites like Starlink; space stations such as the ISS; scientific satellites like the Hubble; Earth observation satellites from companies like Planet Labs, Umbra, and HawkEye 360; GPS; miniature CubeSats for education and research; and military/defense satellites.

Loading next visibility...
Identifier
63824, 2025-092W
Orbit
LEO
Country
Flag of USUS
Related business
Manufacturer
SpaceX/Seattle
Mission
Operational Commercial Communications
Bus & Motor
STARLINK V2MO, Unknown motor
Mass
575 kg wet, ~530 kg dry
Launch date (UTC)
2025-05-04 (9 months ago)
Launch vehicle
FALCON 9
Launch site
Air Force Eastern Test Range (AFETR)
Object type
Payload
Rocket body
Debris
Shape & HBR
Box + 2 Pan, 17.7 m
Radar Cross Section
36.964 m², Large (>1 m²)

Expand to show TLE details & history
Last TLE update: 1 day ago

TLE from 1 day ago
0 STARLINK-34025
1 63824U 25092W   26033.93577301  .00025727  00000-0  94035-3 0  9997
2 63824  42.9960   8.4535 0000524 156.6630 203.4246 15.27608195 43246
Epoch: 2026-02-02T22:27Z
TLE epoch observation values (Epoch: 2026-02-02T22:27:30.788Z)
Latitude
0.00004°
Longitude
-101.54866°
Altitude
483.069 km
Speed
7.626 km/s
True Right ascension
00h 33m 48s
True Declination
0° 00' 00"
Sunlit
Object was in daylight at epoch
Visualization orbit readout
Latitude
Unknown
Longitude
Unknown
Altitude
Unknown
Speed
Unknown
Apparent Right ascension
Unknown
Apparent Declination
Unknown
Sunlit
N/A
Visualization observer readout
Local Sidereal Time
06:58:21
Azimuth
Unknown
Elevation
Unknown
Doppler factor
Unknown
Orbital elements
Apogee altitude
485.27 km
Perigee altitude
484.551 km
Semi-major axis
6,863.048 km
Eccentricity
0.00005
Inclination
42.996°
RAAN
8.4535°
Arg. of periapsis
156.663°
True anomaly
203.42221°
Mean anomaly
203.4246°
Eccentric anomaly
203.42341°
Mean motion
3.8174 °/min
Orbital period
94.31 mins
BSTAR
0.00094035
Loading maneuver chart data...
Computing Atmospheric mass density...
Loading historical data...
Loading historical data...
Loading historical data...
Loading historical data...
Loading historical data...
Loading historical data...
Loading historical data...

Documentation

Showing up to 5 results
|